Weather in Ceske Budejovice

Czech Republic     48°58′42″N   14°28′27″E
temp.,
°C
wind,
m/s
gust,
m/s
humid.,
%
clouds,
%
prec.,
mm/h
press.,
hPa
HPBL,
m
28 november, sun
sun2801:00−2n1196100 0.0 99816
04:00−2nne1196100 0.0 99839
07:00−1nne1198100 0.5 99886
10:000nnw3599100 2.8 997348
13:000nw3699100 4.9 996438
16:00−1wnw489663 0.9 997312
19:00−5w229846 1.0 99831
22:00−4sw2295100 0.0 100052
29 november, mon
mon2901:00−5wsw119835 0.2 100013
04:00−6wsw2296100 0.0 100132
07:00−6sw229473 0.1 100314
10:00−2w388677 0.0 1004407
13:000nw598496 0.0 1004901
16:00−1wnw4984100 0.1 1007427
19:00−2w4108699 0.1 1009412
22:00−1wnw61389100 0.0 1011727
30 november, tue
tue3001:00−1wnw61386100 0.1 1012661
04:00−2w51185100 0.0 1014589
07:00−2w4108399 0.1 1015326
10:00+1wsw5117973 0.0 1015970
13:00+1wsw81677100 0.0 10121307
16:00+1w112074100 0.1 10091182
19:00+1w111978100 0.2 10091022
22:00+2w91884100 1.1 1009927
1 december, wed
wed101:00+2w81684100 1.2 1010820
04:00+3w81587100 0.1 1010610
07:00+3wsw71486100 0.1 1009545
10:00+4wsw61388100 0.0 1009556
13:00+4sw5128996 0.0 1007737
16:00+4wsw5118296 0.0 1005315
19:00+4sw51281100 0.0 1003384
22:00+3sw488686 0.0 1002166
2 december, thu
thu201:00+2sw478893 0.0 1001155
04:00+2ssw4790100 0.0 1001266
07:00+3sw51090100 0.0 1000727
10:00+3sw4991100 0.0 1000659
13:00+3ssw3793100 0.0 1000713
16:00+2ssw2693100 0.0 999615
19:00+2s3487100 0.1 999127
22:00+1ssw2492100 0.0 99974